Погода в Шемалакове

Россия / Чувашская Республика     54°58′23″N   47°54′31″E
темп.,
°C
ветер,
м/с
пор.,
м/с
влажн.,
%
обл.,
%
осадки,
мм/ч
давл.,
гПа
погр.,
м
16 мая, вс
вс1600:00+19ю4125764 0.0 1016217
03:00+17ююв4135594 0.0 1016240
06:00+19ю4135933 0.0 1016322
09:00+25ююз612375 0.0 1016613
12:00+28ююз71029100 0.0 10161186
15:00+28ююз79325 0.0 10152031
18:00+26ююз48465 0.0 1015200
21:00+21юз33548 0.0 101625
17 мая, пн
пн1700:00+19ююз225873 0.0 101619
03:00+17зюз116337 0.0 101711
06:00+20ю115916 0.0 101759
09:00+25вюв01455 0.0 1018508
12:00+29ююз34345 0.0 10171345
15:00+30юз452934 0.0 10172741
18:00+28з11438 0.0 101712
21:00+21юз51165100 2.9 1018206
18 мая, вт
вт1800:00+21ссв1152100 0.5 101711
03:00+18вюв226278 0.5 101811
06:00+20вюв236474 0.0 1019100
09:00+25вюв345064 0.0 1018495
12:00+28юв343526 0.0 10181311
15:00+29юв35285 0.0 10181938
18:00+26в355032 0.0 1017125
21:00+20вюв38695 0.0 1018147
19 мая, ср
ср1900:00+19вюв387559 0.0 1017158
03:00+17вюв410788 0.0 1018192
06:00+19вюв5117449 0.0 1018306
09:00+23вюв695742 0.0 1017645
12:00+26вюв784753 0.0 10161132
15:00+27вюв78404 0.0 10161465
18:00+24в510530 0.0 1014357
21:00+20вюв513630 0.0 1014272
20 мая, чт
чт2000:00+19юв616640 0.1 1014474
03:00+17юв714735 0.4 1013381
06:00+17ююв713770 0.0 1014571
09:00+21ю7106358 0.1 10141427
12:00+17ююв81278100 0.3 1015699
15:00+20ююв9116198 0.4 10151046
18:00+19ююв61063100 0.4 1014484
21:00+17ююз51167100 1.0 1015625